Location: Lussas
(44.6119°N, 4.4726°E)
Time: 07:11:33
(UTC+00:00)

Tianhe-1 - Visible Passes

Search period start: 24 June 2021 00:00
Search period end: 04 July 2021 00:00
Orbit: 375 x 386 km, 41.5° (Epoch: 23 June)

Date Brightness Start Highest point End Pass type
(mag) Time Alt. Az. Time Alt. Az. Time Alt. Az.
24 Jun 2.0 02:00:20 29° SSE 02:00:27 29° SSE 02:03:15 10° E visible
25 Jun 3.9 01:01:56 10° ESE 01:01:56 10° ESE 01:02:01 10° ESE visible
25 Jun 1.4 02:34:02 20° WSW 02:35:55 44° S 02:38:56 10° E visible
26 Jun 2.1 01:35:38 32° SE 01:35:38 32° SE 01:37:52 10° E visible
26 Jun 1.5 03:08:23 10° W 03:11:25 44° S 03:14:26 10° ESE visible
27 Jun 1.3 02:09:25 33° SW 02:10:22 47° S 02:13:25 10° ESE visible
28 Jun 3.1 01:11:12 19° ESE 01:11:12 19° ESE 01:12:20 10° E visible
28 Jun 1.6 02:43:19 13° WSW 02:45:49 38° S 02:48:46 10° ESE visible
29 Jun 1.6 01:45:18 39° SSE 01:45:18 39° SSE 01:47:46 10° ESE visible
29 Jun 2.4 03:18:38 10° WSW 03:21:07 22° SSW 03:23:37 10° SSE visible
30 Jun 1.9 02:19:47 29° SSW 02:20:06 30° SSW 02:22:54 10° SE visible
01 Jul 2.8 02:54:53 15° SW 02:55:16 15° SSW 02:57:11 10° SSE visible
03 Jul 2.5 20:36:57 10° SSW 20:39:13 19° SSE 20:40:11 16° SE visible
